contact:dominique.lefevre@mio.osupytheas.fr, maurice.libes@osupytheas.fr, didier.mallarino@osupytheas.fr
Project:EMSO http://www.emso-fr.org/EMSO-France
Depth: 2436.0 m
Title:EMSO Ligure Ouest : Data MII capteur MICROCAT
DateTime_Computer,Latitude,Longitude,Temperature,Conductivity,Pressure,DateTime_Instrument
DateTime_Computer,Latitude,Longitude,degC,S m-1,dbar,DateTime_Instrument
2019-08-09T00:01:55Z,42.805,6.029,13.2965,4.59973,2469.937,2019-8-09T02:02:15Z
2019-08-09T00:04:59Z,42.805,6.029,13.2967,4.59975,2469.937,2019-8-09T02:05:19Z
2019-08-09T00:08:02Z,42.805,6.029,13.2968,4.59978,2469.96,2019-8-09T02:08:22Z
2019-08-09T00:11:05Z,42.805,6.029,13.2966,4.59978,2469.923,2019-8-09T02:11:25Z
2019-08-09T00:14:08Z,42.805,6.029,13.2967,4.59980,2469.923,2019-8-09T02:14:28Z
2019-08-09T00:17:11Z,42.805,6.029,13.2966,4.59977,2469.937,2019-8-09T02:17:32Z
2019-08-09T00:20:14Z,42.805,6.029,13.2967,4.59976,2469.9,2019-8-09T02:20:35Z
2019-08-09T00:23:18Z,42.805,6.029,13.2969,4.59976,2469.914,2019-8-09T02:23:38Z
2019-08-09T00:26:21Z,42.805,6.029,13.2971,4.59971,2469.937,2019-8-09T02:26:41Z
2019-08-09T00:29:24Z,42.805,6.029,13.2967,4.59983,2469.947,2019-8-09T02:29:44Z
2019-08-09T00:32:27Z,42.805,6.029,13.2964,4.59982,2469.947,2019-8-09T02:32:47Z
2019-08-09T00:35:30Z,42.805,6.029,13.2971,4.60005,2469.9,2019-8-09T02:35:51Z
2019-08-09T00:38:34Z,42.805,6.029,13.2966,4.59979,2469.96,2019-8-09T02:38:54Z
2019-08-09T00:41:37Z,42.805,6.029,13.2964,4.59973,2469.96,2019-8-09T02:41:57Z
2019-08-09T00:44:40Z,42.805,6.029,13.2973,4.59974,2469.923,2019-8-09T02:45:00Z
2019-08-09T00:47:43Z,42.805,6.029,13.2964,4.59979,2469.947,2019-8-09T02:48:03Z
2019-08-09T00:50:46Z,42.805,6.029,13.2963,4.59968,2469.9,2019-8-09T02:51:07Z
2019-08-09T00:53:50Z,42.805,6.029,13.2971,4.59975,2469.923,2019-8-09T02:54:10Z
2019-08-09T00:56:53Z,42.805,6.029,13.2967,4.59973,2469.947,2019-8-09T02:57:13Z
2019-08-09T00:59:56Z,42.805,6.029,13.2965,4.59983,2469.937,2019-8-09T03:00:16Z
2019-08-09T01:02:59Z,42.805,6.029,13.2964,4.59986,2469.947,2019-8-09T03:03:19Z
2019-08-09T01:06:02Z,42.805,6.029,13.2968,4.59976,2469.937,2019-8-09T03:06:23Z
2019-08-09T01:09:06Z,42.805,6.029,13.2971,4.59970,2469.947,2019-8-09T03:09:26Z
2019-08-09T01:12:09Z,42.805,6.029,13.2974,4.59976,2469.96,2019-8-09T03:12:29Z
2019-08-09T01:15:12Z,42.805,6.029,13.2961,4.59982,2469.9,2019-8-09T03:15:32Z
2019-08-09T01:18:15Z,42.805,6.029,13.2964,4.59979,2469.96,2019-8-09T03:18:35Z
2019-08-09T01:21:18Z,42.805,6.029,13.2966,4.59974,2469.97,2019-8-09T03:21:39Z
2019-08-09T01:24:22Z,42.805,6.029,13.2968,4.59968,2469.923,2019-8-09T03:24:42Z
2019-08-09T01:27:25Z,42.805,6.029,13.2967,4.59968,2469.937,2019-8-09T03:27:45Z
2019-08-09T01:30:28Z,42.805,6.029,13.2971,4.59968,2469.97,2019-8-09T03:30:48Z
2019-08-09T01:33:31Z,42.805,6.029,13.2964,4.59969,2469.97,2019-8-09T03:33:51Z
2019-08-09T01:36:34Z,42.805,6.029,13.2966,4.59976,2469.923,2019-8-09T03:36:55Z
2019-08-09T01:39:37Z,42.805,6.029,13.2962,4.59978,2469.937,2019-8-09T03:39:58Z
2019-08-09T01:42:41Z,42.805,6.029,13.2963,4.59976,2469.97,2019-8-09T03:43:01Z
2019-08-09T01:45:44Z,42.805,6.029,13.2967,4.59972,2469.923,2019-8-09T03:46:04Z
2019-08-09T01:48:47Z,42.805,6.029,13.2967,4.59971,2469.923,2019-8-09T03:49:07Z
2019-08-09T01:51:50Z,42.805,6.029,13.2964,4.59978,2469.914,2019-8-09T03:52:10Z
2019-08-09T01:54:53Z,42.805,6.029,13.2969,4.59976,2469.937,2019-8-09T03:55:14Z
2019-08-09T01:57:57Z,42.805,6.029,13.2967,4.59969,2469.947,2019-8-09T03:58:17Z
2019-08-09T02:01:00Z,42.805,6.029,13.2968,4.59974,2469.923,2019-8-09T04:01:20Z
2019-08-09T02:04:03Z,42.805,6.029,13.2970,4.59976,2469.947,2019-8-09T04:04:23Z
2019-08-09T02:07:06Z,42.805,6.029,13.2961,4.59971,2469.937,2019-8-09T04:07:26Z
2019-08-09T02:10:09Z,42.805,6.029,13.2978,4.59976,2469.96,2019-8-09T04:10:30Z
2019-08-09T02:13:13Z,42.805,6.029,13.2967,4.59969,2469.947,2019-8-09T04:13:33Z
2019-08-09T02:16:16Z,42.805,6.029,13.2963,4.59973,2469.914,2019-8-09T04:16:36Z
2019-08-09T02:19:19Z,42.805,6.029,13.2967,4.59968,2469.923,2019-8-09T04:19:39Z
2019-08-09T02:22:22Z,42.805,6.029,13.2968,4.59969,2469.947,2019-8-09T04:22:42Z
2019-08-09T02:25:25Z,42.805,6.029,13.2964,4.59972,2469.937,2019-8-09T04:25:46Z
2019-08-09T02:28:29Z,42.805,6.029,13.2970,4.59976,2469.914,2019-8-09T04:28:49Z
2019-08-09T02:31:32Z,42.805,6.029,13.2960,4.59966,2469.914,2019-8-09T04:31:52Z
2019-08-09T02:34:35Z,42.805,6.029,13.2961,4.59972,2469.914,2019-8-09T04:34:55Z
2019-08-09T02:37:38Z,42.805,6.029,13.2963,4.59972,2469.9,2019-8-09T04:37:58Z
2019-08-09T02:40:41Z,42.805,6.029,13.2962,4.59973,2469.923,2019-8-09T04:41:02Z
2019-08-09T02:43:45Z,42.805,6.029,13.2965,4.59972,2469.923,2019-8-09T04:44:05Z
2019-08-09T02:46:48Z,42.805,6.029,13.2969,4.59969,2469.937,2019-8-09T04:47:08Z
2019-08-09T02:49:51Z,42.805,6.029,13.2967,4.59969,2469.96,2019-8-09T04:50:11Z
2019-08-09T02:52:54Z,42.805,6.029,13.2963,4.59967,2469.914,2019-8-09T04:53:14Z
2019-08-09T02:55:57Z,42.805,6.029,13.2967,4.59971,2469.923,2019-8-09T04:56:18Z
2019-08-09T02:59:01Z,42.805,6.029,13.2964,4.59968,2469.914,2019-8-09T04:59:21Z
2019-08-09T03:02:04Z,42.805,6.029,13.2964,4.59964,2469.923,2019-8-09T05:02:24Z
2019-08-09T03:05:07Z,42.805,6.029,13.2969,4.59973,2469.937,2019-8-09T05:05:27Z
2019-08-09T03:08:10Z,42.805,6.029,13.2964,4.59971,2469.923,2019-8-09T05:08:30Z
2019-08-09T03:11:13Z,42.805,6.029,13.2962,4.59975,2469.937,2019-8-09T05:11:33Z
2019-08-09T03:14:16Z,42.805,6.029,13.2965,4.59969,2469.914,2019-8-09T05:14:37Z
2019-08-09T03:17:20Z,42.805,6.029,13.2966,4.59969,2469.9,2019-8-09T05:17:40Z
2019-08-09T03:20:23Z,42.805,6.029,13.2965,4.59971,2469.876,2019-8-09T05:20:43Z
2019-08-09T03:23:26Z,42.805,6.029,13.2968,4.59982,2469.947,2019-8-09T05:23:46Z
2019-08-09T03:26:29Z,42.805,6.029,13.2962,4.59971,2469.914,2019-8-09T05:26:49Z
2019-08-09T03:29:32Z,42.805,6.029,13.2964,4.59965,2469.923,2019-8-09T05:29:53Z
2019-08-09T03:32:36Z,42.805,6.029,13.2962,4.59984,2469.876,2019-8-09T05:32:56Z
2019-08-09T03:35:39Z,42.805,6.029,13.2964,4.59974,2469.937,2019-8-09T05:35:59Z
2019-08-09T03:38:42Z,42.805,6.029,13.2963,4.59970,2469.876,2019-8-09T05:39:02Z
2019-08-09T03:41:45Z,42.805,6.029,13.2962,4.59974,2469.9,2019-8-09T05:42:05Z
2019-08-09T03:44:48Z,42.805,6.029,13.2965,4.59973,2469.876,2019-8-09T05:45:09Z
2019-08-09T03:47:52Z,42.805,6.029,13.2968,4.59973,2469.9,2019-8-09T05:48:12Z
2019-08-09T03:50:55Z,42.805,6.029,13.2964,4.59975,2469.9,2019-8-09T05:51:15Z
2019-08-09T03:53:58Z,42.805,6.029,13.2960,4.59976,2469.876,2019-8-09T05:54:18Z
2019-08-09T03:57:01Z,42.805,6.029,13.2966,4.59970,2469.914,2019-8-09T05:57:21Z
2019-08-09T04:00:04Z,42.805,6.029,13.2964,4.59972,2469.914,2019-8-09T06:00:25Z
2019-08-09T04:03:08Z,42.805,6.029,13.2967,4.59976,2469.914,2019-8-09T06:03:28Z
2019-08-09T04:06:11Z,42.805,6.029,13.2964,4.59970,2469.876,2019-8-09T06:06:31Z
2019-08-09T04:09:14Z,42.805,6.029,13.2966,4.59973,2469.937,2019-8-09T06:09:34Z
2019-08-09T04:12:17Z,42.805,6.029,13.2964,4.59971,2469.876,2019-8-09T06:12:37Z
2019-08-09T04:15:20Z,42.805,6.029,13.2961,4.59976,2469.876,2019-8-09T06:15:41Z
2019-08-09T04:18:24Z,42.805,6.029,13.2968,4.59973,2469.89,2019-8-09T06:18:44Z
2019-08-09T04:21:27Z,42.805,6.029,13.2964,4.59968,2469.89,2019-8-09T06:21:47Z
2019-08-09T04:24:30Z,42.805,6.029,13.2964,4.59973,2469.853,2019-8-09T06:24:50Z
2019-08-09T04:27:33Z,42.805,6.029,13.2963,4.59969,2469.914,2019-8-09T06:27:54Z
2019-08-09T04:30:37Z,42.805,6.029,13.2962,4.59968,2469.876,2019-8-09T06:30:57Z
2019-08-09T04:33:40Z,42.805,6.029,13.2969,4.59968,2469.89,2019-8-09T06:34:00Z
2019-08-09T04:36:44Z,42.805,6.029,13.2961,4.59966,2469.89,2019-8-09T06:37:04Z
2019-08-09T04:39:47Z,42.805,6.029,13.2965,4.59968,2469.876,2019-8-09T06:40:07Z
2019-08-09T04:42:50Z,42.805,6.029,13.2967,4.59981,2469.876,2019-8-09T06:43:10Z
2019-08-09T04:45:53Z,42.805,6.029,13.2970,4.59983,2469.914,2019-8-09T06:46:14Z
2019-08-09T04:48:57Z,42.805,6.029,13.2974,4.59986,2469.914,2019-8-09T06:49:17Z
2019-08-09T04:52:00Z,42.805,6.029,13.2967,4.59976,2469.853,2019-8-09T06:52:20Z
2019-08-09T04:55:03Z,42.805,6.029,13.2960,4.59971,2469.89,2019-8-09T06:55:23Z
2019-08-09T04:58:07Z,42.805,6.029,13.2971,4.59977,2469.867,2019-8-09T06:58:27Z
2019-08-09T05:01:10Z,42.805,6.029,13.2968,4.59984,2469.853,2019-8-09T07:01:30Z
2019-08-09T05:04:13Z,42.805,6.029,13.2967,4.59993,2469.853,2019-8-09T07:04:33Z
2019-08-09T05:07:16Z,42.805,6.029,13.2961,4.59970,2469.89,2019-8-09T07:07:37Z
2019-08-09T05:10:20Z,42.805,6.029,13.2968,4.59973,2469.876,2019-8-09T07:10:40Z
2019-08-09T05:13:23Z,42.805,6.029,13.2967,4.59976,2469.89,2019-8-09T07:13:43Z
2019-08-09T05:16:26Z,42.805,6.029,13.2964,4.59966,2469.9,2019-8-09T07:16:46Z
2019-08-09T05:19:29Z,42.805,6.029,13.2965,4.59971,2469.876,2019-8-09T07:19:50Z
2019-08-09T05:22:33Z,42.805,6.029,13.2964,4.59971,2469.9,2019-8-09T07:22:53Z
2019-08-09T05:25:36Z,42.805,6.029,13.2965,4.59976,2469.89,2019-8-09T07:25:56Z
2019-08-09T05:28:39Z,42.805,6.029,13.2966,4.59976,2469.876,2019-8-09T07:29:00Z
2019-08-09T05:31:43Z,42.805,6.029,13.2974,4.59987,2469.867,2019-8-09T07:32:03Z
2019-08-09T05:34:46Z,42.805,6.029,13.2964,4.59986,2469.876,2019-8-09T07:35:06Z
2019-08-09T05:37:49Z,42.805,6.029,13.2971,4.59995,2469.867,2019-8-09T07:38:09Z
2019-08-09T05:40:52Z,42.805,6.029,13.2969,4.59984,2469.867,2019-8-09T07:41:13Z
2019-08-09T05:43:56Z,42.805,6.029,13.2968,4.59979,2469.853,2019-8-09T07:44:16Z
2019-08-09T05:46:59Z,42.805,6.029,13.2967,4.59978,2469.867,2019-8-09T07:47:19Z
2019-08-09T05:50:02Z,42.805,6.029,13.2973,4.59996,2469.853,2019-8-09T07:50:22Z
2019-08-09T05:53:06Z,42.805,6.029,13.2969,4.59971,2469.876,2019-8-09T07:53:26Z
2019-08-09T05:56:09Z,42.805,6.029,13.2978,4.59972,2469.853,2019-8-09T07:56:29Z
2019-08-09T05:59:12Z,42.805,6.029,13.2966,4.59992,2469.853,2019-8-09T07:59:32Z
2019-08-09T06:02:15Z,42.805,6.029,13.2967,4.59972,2469.83,2019-8-09T08:02:36Z
2019-08-09T06:05:19Z,42.805,6.029,13.2964,4.59976,2469.853,2019-8-09T08:05:39Z
2019-08-09T06:08:22Z,42.805,6.029,13.2967,4.59975,2469.867,2019-8-09T08:08:42Z
2019-08-09T06:11:26Z,42.805,6.029,13.2971,4.59983,2469.853,2019-8-09T08:11:46Z
2019-08-09T06:14:29Z,42.805,6.029,13.2980,4.59991,2469.867,2019-8-09T08:14:49Z
2019-08-09T06:17:32Z,42.805,6.029,13.2974,4.59983,2469.867,2019-8-09T08:17:53Z
2019-08-09T06:20:36Z,42.805,6.029,13.2965,4.59974,2469.816,2019-8-09T08:20:56Z
2019-08-09T06:23:39Z,42.805,6.029,13.2977,4.59999,2469.83,2019-8-09T08:23:59Z
2019-08-09T06:26:42Z,42.805,6.029,13.2974,4.59999,2469.83,2019-8-09T08:27:03Z
2019-08-09T06:29:45Z,42.805,6.029,13.2967,4.59976,2469.806,2019-8-09T08:30:06Z
2019-08-09T06:32:49Z,42.805,6.029,13.2968,4.59978,2469.83,2019-8-09T08:33:09Z
2019-08-09T06:35:52Z,42.805,6.029,13.2965,4.59973,2469.853,2019-8-09T08:36:12Z
2019-08-09T06:38:55Z,42.805,6.029,13.2964,4.59973,2469.844,2019-8-09T08:39:16Z
2019-08-09T06:41:59Z,42.805,6.029,13.2971,4.59985,2469.853,2019-8-09T08:42:19Z
2019-08-09T06:45:02Z,42.805,6.029,13.2966,4.59973,2469.806,2019-8-09T08:45:22Z
2019-08-09T06:48:05Z,42.805,6.029,13.2969,4.59977,2469.806,2019-8-09T08:48:25Z
2019-08-09T06:51:08Z,42.805,6.029,13.2968,4.59986,2469.83,2019-8-09T08:51:29Z
2019-08-09T06:54:12Z,42.805,6.029,13.2970,4.59996,2469.844,2019-8-09T08:54:32Z
2019-08-09T06:57:15Z,42.805,6.029,13.2973,4.59997,2469.83,2019-8-09T08:57:35Z
2019-08-09T07:00:18Z,42.805,6.029,13.2967,4.59986,2469.844,2019-8-09T09:00:39Z
2019-08-09T07:03:22Z,42.805,6.029,13.2974,4.59988,2469.83,2019-8-09T09:03:42Z
2019-08-09T07:06:25Z,42.805,6.029,13.2965,4.59987,2469.83,2019-8-09T09:06:45Z
2019-08-09T07:09:28Z,42.805,6.029,13.2967,4.59996,2469.821,2019-8-09T09:09:48Z
2019-08-09T07:12:32Z,42.805,6.029,13.2964,4.59973,2469.821,2019-8-09T09:12:52Z
2019-08-09T07:15:35Z,42.805,6.029,13.2962,4.59970,2469.821,2019-8-09T09:15:55Z
2019-08-09T07:18:38Z,42.805,6.029,13.2972,4.59983,2469.844,2019-8-09T09:18:58Z
2019-08-09T07:21:41Z,42.805,6.029,13.2983,4.59998,2469.806,2019-8-09T09:22:02Z
2019-08-09T07:24:45Z,42.805,6.029,13.2967,4.59974,2469.844,2019-8-09T09:25:05Z
2019-08-09T07:27:48Z,42.805,6.029,13.2967,4.59972,2469.844,2019-8-09T09:28:09Z
2019-08-09T07:30:52Z,42.805,6.029,13.2971,4.59980,2469.83,2019-8-09T09:31:12Z
2019-08-09T07:33:55Z,42.805,6.029,13.2974,4.59985,2469.821,2019-8-09T09:34:15Z
2019-08-09T07:36:58Z,42.805,6.029,13.2972,4.59996,2469.83,2019-8-09T09:37:19Z
2019-08-09T07:40:02Z,42.805,6.029,13.2968,4.59978,2469.844,2019-8-09T09:40:22Z
2019-08-09T07:43:05Z,42.805,6.029,13.2968,4.59981,2469.853,2019-8-09T09:43:25Z
2019-08-09T07:46:08Z,42.805,6.029,13.2967,4.59983,2469.821,2019-8-09T09:46:28Z
2019-08-09T07:49:11Z,42.805,6.029,13.2968,4.59973,2469.821,2019-8-09T09:49:32Z
2019-08-09T07:52:15Z,42.805,6.029,13.2964,4.59973,2469.821,2019-8-09T09:52:35Z
2019-08-09T07:55:18Z,42.805,6.029,13.2964,4.59979,2469.797,2019-8-09T09:55:38Z
2019-08-09T07:58:21Z,42.805,6.029,13.2969,4.59976,2469.83,2019-8-09T09:58:42Z
2019-08-09T08:01:25Z,42.805,6.029,13.2969,4.59974,2469.783,2019-8-09T10:01:45Z
2019-08-09T08:04:28Z,42.805,6.029,13.2972,4.59972,2469.821,2019-8-09T10:04:48Z
2019-08-09T08:07:31Z,42.805,6.029,13.2968,4.59985,2469.806,2019-8-09T10:07:51Z
2019-08-09T08:10:34Z,42.805,6.029,13.2969,4.59983,2469.773,2019-8-09T10:10:54Z
2019-08-09T08:13:38Z,42.805,6.029,13.2972,4.59980,2469.783,2019-8-09T10:13:58Z
2019-08-09T08:16:41Z,42.805,6.029,13.2991,4.59996,2469.83,2019-8-09T10:17:01Z
2019-08-09T08:19:44Z,42.805,6.029,13.2964,4.59997,2469.797,2019-8-09T10:20:04Z
2019-08-09T08:22:47Z,42.805,6.029,13.2976,4.59996,2469.821,2019-8-09T10:23:08Z
2019-08-09T08:25:51Z,42.805,6.029,13.2973,4.59999,2469.783,2019-8-09T10:26:11Z
2019-08-09T08:28:54Z,42.805,6.029,13.2971,4.59988,2469.806,2019-8-09T10:29:14Z
2019-08-09T08:31:57Z,42.805,6.029,13.2968,4.59993,2469.83,2019-8-09T10:32:18Z
2019-08-09T08:35:01Z,42.805,6.029,13.2974,4.60001,2469.821,2019-8-09T10:35:21Z
2019-08-09T08:38:04Z,42.805,6.029,13.2986,4.60000,2469.783,2019-8-09T10:38:24Z
2019-08-09T08:41:07Z,42.805,6.029,13.2968,4.59987,2469.783,2019-8-09T10:41:28Z
2019-08-09T08:44:11Z,42.805,6.029,13.2968,4.59983,2469.783,2019-8-09T10:44:31Z
2019-08-09T08:47:14Z,42.805,6.029,13.2976,4.59999,2469.83,2019-8-09T10:47:34Z
2019-08-09T08:50:17Z,42.805,6.029,13.2971,4.59987,2469.797,2019-8-09T10:50:37Z
2019-08-09T08:53:20Z,42.805,6.029,13.2976,4.60001,2469.783,2019-8-09T10:53:41Z
2019-08-09T08:56:24Z,42.805,6.029,13.2982,4.60002,2469.821,2019-8-09T10:56:44Z
2019-08-09T08:59:27Z,42.805,6.029,13.2989,4.60011,2469.821,2019-8-09T10:59:47Z
2019-08-09T09:02:30Z,42.805,6.029,13.2975,4.59991,2469.783,2019-8-09T11:02:50Z
2019-08-09T09:05:34Z,42.805,6.029,13.2986,4.60004,2469.783,2019-8-09T11:05:54Z
2019-08-09T09:08:37Z,42.805,6.029,13.2979,4.59989,2469.783,2019-8-09T11:08:57Z
2019-08-09T09:11:40Z,42.805,6.029,13.2964,4.59988,2469.783,2019-8-09T11:12:00Z
2019-08-09T09:14:43Z,42.805,6.029,13.2967,4.60001,2469.806,2019-8-09T11:15:04Z
2019-08-09T09:17:47Z,42.805,6.029,13.2972,4.59996,2469.844,2019-8-09T11:18:07Z
2019-08-09T09:20:50Z,42.805,6.029,13.2970,4.60001,2469.783,2019-8-09T11:21:10Z
2019-08-09T09:23:53Z,42.805,6.029,13.2986,4.60005,2469.806,2019-8-09T11:24:14Z
2019-08-09T09:26:57Z,42.805,6.029,13.2974,4.60001,2469.806,2019-8-09T11:27:17Z
2019-08-09T09:30:00Z,42.805,6.029,13.2971,4.59986,2469.797,2019-8-09T11:30:20Z
2019-08-09T09:33:03Z,42.805,6.029,13.2974,4.59982,2469.806,2019-8-09T11:33:24Z
2019-08-09T09:36:07Z,42.805,6.029,13.2983,4.59993,2469.806,2019-8-09T11:36:27Z
2019-08-09T09:39:10Z,42.805,6.029,13.2983,4.59992,2469.821,2019-8-09T11:39:30Z
2019-08-09T09:42:13Z,42.805,6.029,13.2961,4.59996,2469.76,2019-8-09T11:42:34Z
2019-08-09T09:45:16Z,42.805,6.029,13.2984,4.60005,2469.797,2019-8-09T11:45:37Z
2019-08-09T09:48:20Z,42.805,6.029,13.2975,4.60010,2469.821,2019-8-09T11:48:40Z
2019-08-09T09:51:23Z,42.805,6.029,13.2983,4.60011,2469.783,2019-8-09T11:51:43Z
2019-08-09T09:54:26Z,42.805,6.029,13.2968,4.59993,2469.844,2019-8-09T11:54:47Z
2019-08-09T09:57:30Z,42.805,6.029,13.2979,4.59975,2469.806,2019-8-09T11:57:50Z
2019-08-09T10:00:33Z,42.805,6.029,13.2960,4.59974,2469.821,2019-8-09T12:00:53Z
2019-08-09T10:03:36Z,42.805,6.029,13.2969,4.59983,2469.844,2019-8-09T12:03:57Z
2019-08-09T10:06:40Z,42.805,6.029,13.2973,4.59986,2469.821,2019-8-09T12:07:00Z
2019-08-09T10:09:43Z,42.805,6.029,13.2981,4.59999,2469.83,2019-8-09T12:10:03Z
2019-08-09T10:12:46Z,42.805,6.029,13.2968,4.59992,2469.821,2019-8-09T12:13:06Z
2019-08-09T10:15:49Z,42.805,6.029,13.2975,4.59991,2469.821,2019-8-09T12:16:10Z
2019-08-09T10:18:53Z,42.805,6.029,13.2974,4.59997,2469.844,2019-8-09T12:19:13Z
2019-08-09T10:21:56Z,42.805,6.029,13.2979,4.60007,2469.806,2019-8-09T12:22:16Z
2019-08-09T10:24:59Z,42.805,6.029,13.2982,4.60007,2469.83,2019-8-09T12:25:20Z
2019-08-09T10:28:03Z,42.805,6.029,13.2976,4.60016,2469.83,2019-8-09T12:28:23Z
2019-08-09T10:31:06Z,42.805,6.029,13.2981,4.59998,2469.821,2019-8-09T12:31:26Z
2019-08-09T10:34:09Z,42.805,6.029,13.2964,4.59983,2469.806,2019-8-09T12:34:29Z
2019-08-09T10:37:12Z,42.805,6.029,13.2971,4.60010,2469.853,2019-8-09T12:37:32Z
2019-08-09T10:40:15Z,42.805,6.029,13.2975,4.60003,2469.853,2019-8-09T12:40:36Z
2019-08-09T10:43:18Z,42.805,6.029,13.2973,4.59991,2469.83,2019-8-09T12:43:39Z
2019-08-09T10:46:22Z,42.805,6.029,13.2974,4.59993,2469.83,2019-8-09T12:46:42Z
2019-08-09T10:49:25Z,42.805,6.029,13.2971,4.59990,2469.844,2019-8-09T12:49:45Z
2019-08-09T10:52:28Z,42.805,6.029,13.2962,4.59992,2469.853,2019-8-09T12:52:48Z
2019-08-09T10:55:31Z,42.805,6.029,13.2964,4.59980,2469.83,2019-8-09T12:55:52Z
2019-08-09T10:58:34Z,42.805,6.029,13.2970,4.59979,2469.844,2019-8-09T12:58:55Z
2019-08-09T11:01:38Z,42.805,6.029,13.2968,4.59992,2469.867,2019-8-09T13:01:58Z
2019-08-09T11:04:41Z,42.805,6.029,13.2974,4.59997,2469.844,2019-8-09T13:05:01Z
2019-08-09T11:07:44Z,42.805,6.029,13.2968,4.59986,2469.844,2019-8-09T13:08:04Z
2019-08-09T11:10:47Z,42.805,6.029,13.2974,4.59989,2469.83,2019-8-09T13:11:07Z
2019-08-09T11:13:50Z,42.805,6.029,13.2969,4.59991,2469.853,2019-8-09T13:14:11Z
2019-08-09T11:16:54Z,42.805,6.029,13.2976,4.60011,2469.844,2019-8-09T13:17:14Z
2019-08-09T11:19:57Z,42.805,6.029,13.2971,4.59977,2469.853,2019-8-09T13:20:17Z
2019-08-09T11:23:00Z,42.805,6.029,13.2970,4.59988,2469.844,2019-8-09T13:23:20Z
2019-08-09T11:26:03Z,42.805,6.029,13.2970,4.59976,2469.867,2019-8-09T13:26:23Z
2019-08-09T11:29:06Z,42.805,6.029,13.2968,4.59978,2469.89,2019-8-09T13:29:27Z
2019-08-09T11:32:10Z,42.805,6.029,13.2973,4.59991,2469.876,2019-8-09T13:32:30Z
2019-08-09T11:35:13Z,42.805,6.029,13.2972,4.59990,2469.853,2019-8-09T13:35:33Z
2019-08-09T11:38:16Z,42.805,6.029,13.2963,4.59977,2469.853,2019-8-09T13:38:36Z
2019-08-09T11:41:19Z,42.805,6.029,13.2968,4.59978,2469.876,2019-8-09T13:41:39Z
2019-08-09T11:44:22Z,42.805,6.029,13.2969,4.59982,2469.867,2019-8-09T13:44:43Z
2019-08-09T11:47:26Z,42.805,6.029,13.2968,4.59978,2469.876,2019-8-09T13:47:46Z
2019-08-09T11:50:29Z,42.805,6.029,13.2971,4.59986,2469.876,2019-8-09T13:50:49Z
2019-08-09T11:53:32Z,42.805,6.029,13.2969,4.59988,2469.876,2019-8-09T13:53:52Z
2019-08-09T11:56:35Z,42.805,6.029,13.2970,4.59986,2469.89,2019-8-09T13:56:55Z
2019-08-09T11:59:38Z,42.805,6.029,13.2967,4.59981,2469.83,2019-8-09T13:59:59Z
2019-08-09T12:02:42Z,42.805,6.029,13.2976,4.59985,2469.89,2019-8-09T14:03:02Z
2019-08-09T12:05:45Z,42.805,6.029,13.2971,4.59986,2469.853,2019-8-09T14:06:05Z
2019-08-09T12:08:48Z,42.805,6.029,13.2969,4.59986,2469.89,2019-8-09T14:09:08Z
2019-08-09T12:11:51Z,42.805,6.029,13.2968,4.59983,2469.876,2019-8-09T14:12:11Z
2019-08-09T12:14:54Z,42.805,6.029,13.2970,4.59986,2469.867,2019-8-09T14:15:15Z
2019-08-09T12:17:57Z,42.805,6.029,13.2971,4.59985,2469.876,2019-8-09T14:18:18Z
2019-08-09T12:21:01Z,42.805,6.029,13.2971,4.59983,2469.9,2019-8-09T14:21:21Z
2019-08-09T12:24:04Z,42.805,6.029,13.2967,4.59988,2469.89,2019-8-09T14:24:24Z
2019-08-09T12:27:07Z,42.805,6.029,13.2964,4.59992,2469.9,2019-8-09T14:27:27Z
2019-08-09T12:30:10Z,42.805,6.029,13.2965,4.59990,2469.914,2019-8-09T14:30:30Z
2019-08-09T12:33:13Z,42.805,6.029,13.2968,4.59974,2469.9,2019-8-09T14:33:34Z
2019-08-09T12:36:17Z,42.805,6.029,13.2968,4.59978,2469.876,2019-8-09T14:36:37Z
2019-08-09T12:39:20Z,42.805,6.029,13.2968,4.59979,2469.914,2019-8-09T14:39:40Z
2019-08-09T12:42:23Z,42.805,6.029,13.2972,4.60002,2469.914,2019-8-09T14:42:43Z
2019-08-09T12:45:26Z,42.805,6.029,13.2970,4.59985,2469.9,2019-8-09T14:45:46Z
2019-08-09T12:48:29Z,42.805,6.029,13.2966,4.59981,2469.876,2019-8-09T14:48:50Z
2019-08-09T12:51:33Z,42.805,6.029,13.2962,4.59976,2469.9,2019-8-09T14:51:53Z
2019-08-09T12:54:36Z,42.805,6.029,13.2964,4.59976,2469.9,2019-8-09T14:54:56Z
2019-08-09T12:57:39Z,42.805,6.029,13.2974,4.59996,2469.9,2019-8-09T14:57:59Z
2019-08-09T13:00:42Z,42.805,6.029,13.2979,4.59999,2469.876,2019-8-09T15:01:02Z
2019-08-09T13:03:45Z,42.805,6.029,13.2973,4.59986,2469.9,2019-8-09T15:04:06Z
2019-08-09T13:06:49Z,42.805,6.029,13.2971,4.59989,2469.876,2019-8-09T15:07:09Z
2019-08-09T13:09:52Z,42.805,6.029,13.2977,4.60003,2469.9,2019-8-09T15:10:12Z
2019-08-09T13:12:55Z,42.805,6.029,13.2974,4.59978,2469.89,2019-8-09T15:13:15Z
2019-08-09T13:15:58Z,42.805,6.029,13.2965,4.59982,2469.914,2019-8-09T15:16:19Z
2019-08-09T13:19:01Z,42.805,6.029,13.2976,4.59995,2469.876,2019-8-09T15:19:22Z
2019-08-09T13:22:05Z,42.805,6.029,13.2971,4.59978,2469.9,2019-8-09T15:22:25Z
2019-08-09T13:25:08Z,42.805,6.029,13.2971,4.60014,2469.9,2019-8-09T15:25:28Z
2019-08-09T13:28:11Z,42.805,6.029,13.2965,4.59988,2469.876,2019-8-09T15:28:31Z
2019-08-09T13:31:14Z,42.805,6.029,13.2976,4.59996,2469.9,2019-8-09T15:31:34Z
2019-08-09T13:34:17Z,42.805,6.029,13.2975,4.59984,2469.914,2019-8-09T15:34:38Z
2019-08-09T13:37:21Z,42.805,6.029,13.2964,4.59996,2469.876,2019-8-09T15:37:41Z
2019-08-09T13:40:24Z,42.805,6.029,13.2978,4.60007,2469.923,2019-8-09T15:40:44Z
2019-08-09T13:43:27Z,42.805,6.029,13.2975,4.59990,2469.9,2019-8-09T15:43:47Z
2019-08-09T13:46:30Z,42.805,6.029,13.2969,4.59998,2469.937,2019-8-09T15:46:50Z
2019-08-09T13:49:33Z,42.805,6.029,13.2965,4.59987,2469.876,2019-8-09T15:49:54Z
2019-08-09T13:52:37Z,42.805,6.029,13.2969,4.59983,2469.914,2019-8-09T15:52:57Z
2019-08-09T13:55:40Z,42.805,6.029,13.2972,4.59981,2469.937,2019-8-09T15:56:00Z
2019-08-09T13:58:43Z,42.805,6.029,13.2974,4.59983,2469.9,2019-8-09T15:59:03Z
2019-08-09T14:01:46Z,42.805,6.029,13.2974,4.60010,2469.89,2019-8-09T16:02:07Z
2019-08-09T14:04:50Z,42.805,6.029,13.2971,4.59983,2469.9,2019-8-09T16:05:10Z
2019-08-09T14:07:53Z,42.805,6.029,13.2967,4.60003,2469.9,2019-8-09T16:08:13Z
2019-08-09T14:10:56Z,42.805,6.029,13.2983,4.60025,2469.914,2019-8-09T16:11:16Z
2019-08-09T14:13:59Z,42.805,6.029,13.2968,4.60014,2469.89,2019-8-09T16:14:19Z
2019-08-09T14:17:02Z,42.805,6.029,13.2971,4.59988,2469.876,2019-8-09T16:17:23Z
2019-08-09T14:20:06Z,42.805,6.029,13.2970,4.59995,2469.937,2019-8-09T16:20:26Z
2019-08-09T14:23:09Z,42.805,6.029,13.2979,4.60024,2469.9,2019-8-09T16:23:29Z
2019-08-09T14:26:12Z,42.805,6.029,13.2973,4.59998,2469.9,2019-8-09T16:26:32Z
2019-08-09T14:29:15Z,42.805,6.029,13.2981,4.59988,2469.9,2019-8-09T16:29:35Z
2019-08-09T14:32:18Z,42.805,6.029,13.2973,4.59988,2469.9,2019-8-09T16:32:39Z
2019-08-09T14:35:22Z,42.805,6.029,13.2975,4.59980,2469.9,2019-8-09T16:35:42Z
2019-08-09T14:38:25Z,42.805,6.029,13.2977,4.59991,2469.937,2019-8-09T16:38:45Z
2019-08-09T14:41:28Z,42.805,6.029,13.2978,4.60000,2469.923,2019-8-09T16:41:48Z
2019-08-09T14:44:31Z,42.805,6.029,13.2974,4.60001,2469.914,2019-8-09T16:44:51Z
2019-08-09T14:47:34Z,42.805,6.029,13.2979,4.59995,2469.937,2019-8-09T16:47:55Z
2019-08-09T14:50:38Z,42.805,6.029,13.2974,4.59994,2469.923,2019-8-09T16:50:58Z
2019-08-09T14:53:41Z,42.805,6.029,13.2967,4.59983,2469.923,2019-8-09T16:54:01Z
2019-08-09T14:56:44Z,42.805,6.029,13.2962,4.59982,2469.9,2019-8-09T16:57:04Z
2019-08-09T14:59:47Z,42.805,6.029,13.2969,4.59983,2469.923,2019-8-09T17:00:07Z
2019-08-09T15:02:50Z,42.805,6.029,13.2974,4.59991,2469.9,2019-8-09T17:03:10Z
2019-08-09T15:05:53Z,42.805,6.029,13.2967,4.59978,2469.914,2019-8-09T17:06:14Z
2019-08-09T15:08:57Z,42.805,6.029,13.2967,4.59980,2469.9,2019-8-09T17:09:17Z
2019-08-09T15:12:00Z,42.805,6.029,13.2971,4.59987,2469.937,2019-8-09T17:12:20Z
2019-08-09T15:15:03Z,42.805,6.029,13.2964,4.59974,2469.9,2019-8-09T17:15:23Z